Location: Crocus Hill
(18.2167°N, 63.0667°W)
Time: 04:23:19
(UTC+00:00)

CZ-4B DEB - Pass Details

Date: 26 January 2020
Orbit: 840 x 862 km, 99.1° (Epoch: 19 February)

Event Time Altitude Azimuth Distance (km) Brightness Sun altitude
Rises 09:23:11 0° 11° (N) 3,418 7.3 -19.8°
Reaches altitude 10° 09:25:34 10° 10° (N) 2,478 6.6 -19.3°
Maximum altitude 09:31:04 81° 283° (WNW) 862 4.1 -18.0°
Drops below altitude 10° 09:36:31 10° 197° (SSW) 2,459 6.6 -16.8°
Sets 09:38:52 0° 196° (SSW) 3,390 7.3 -16.2°
